Location: Newark
(44.6394°N, 22.2943°E)
Time: 03:10:12
(UTC+00:00)

FO-29 - Pass Details

Date: 09 December 2023
Orbit: 799 x 1322 km, 98.6° (Epoch: 04 March)

Event Time Altitude Azimuth Distance (km) Brightness Sun altitude
Rises 01:55:14 0° 11° (NNE) 4,208 13.0 -41.8°
Reaches altitude 10° 01:57:52 10° 10° (N) 3,281 12.4 -41.3°
Enters shadow 01:59:42 19° 8° (N) 2,658 11.8 -41.0°
